Location: Forst
(46.9333°N, 15.4333°E)
Time: 18:16:30
(UTC+00:00)

X-37B - Pass Details

Date: 28 September 2021
Orbit: 385 x 389 km, 45.0° (Epoch: 13 October)

Event Time Altitude Azimuth Distance (km) Brightness Sun altitude
Exits shadow 02:26:08 21° 101° (E) 926 3.0 -25.1°
Drops below altitude 10° 02:27:25 10° 92° (E) 1,414 4.2 -24.9°
Sets 02:29:31 0° 87° (E) 2,271 5.6 -24.6°
